Погода в Камском Устье

Россия / Республика Татарстан     55°11′49″N   49°15′10″E
темп.,
°C
ветер,
м/с
пор.,
м/с
влажн.,
%
обл.,
%
осадки,
мм/ч
давл.,
гПа
погр.,
м
6 мая, чт
чт600:00+5зюз498283 0.0 1012169
03:00+5зюз348247 0.0 101349
06:00+6зюз3586100 0.1 1014139
09:00+8юз3583100 0.1 1015193
12:00+13зюз466730 0.0 1015739
15:00+14юз476491 0.4 1015641
18:00+13юз486992 0.0 1015123
21:00+10ююз477942 0.0 101676
7 мая, пт
пт700:00+9ююз51083100 0.0 1016134
03:00+8ю4884100 0.0 1016108
06:00+9ю51079100 0.0 1016180
09:00+12ююз61067100 0.0 1016335
12:00+14ююз71056100 0.0 10161002
15:00+15ююз71054100 0.0 10151023
18:00+13ю61264100 0.0 1014300
21:00+11зсз378190 0.0 1016181
8 мая, сб
сб800:00+9ссз239499 0.0 101766
03:00+9ссз3492100 0.1 1018138
06:00+9св458799 0.0 1018149
09:00+10юв238998 0.0 1018324
12:00+12юв247938 0.0 1017484
15:00+13ю257050 0.1 1016485
18:00+13юв4870100 0.0 1015143
21:00+12ююв5117432 0.0 1015174
9 мая, вс
вс900:00+11ююв51274100 0.0 1014173
03:00+10ююв5117498 0.0 1014163
06:00+11ююв61374100 0.0 1013251
09:00+12ююв61274100 0.0 1013368
12:00+14ююв61168100 0.0 1013513
15:00+16ююз6106072 0.0 1013745
18:00+12сз4795100 3.3 1016138
21:00+9ссз5795100 5.9 1018177
10 мая, пн
пн1000:00+9ссз5792100 0.5 1020187
03:00+8ссз5991100 1.3 1022205
06:00+8ссз6992100 1.0 1024261
09:00+8с6990100 1.4 1026311
12:00+8ссв5786100 0.3 1028275
15:00+9ссв358691 0.4 1028180
18:00+10в248166 0.0 102898
21:00+8ссв45820 0.0 103063